Tracking 28799 objects as of 18-Apr-2024
HD Live streaming from Space Station
objects crossing your sky now

RADIO 2

Track RADIO 2 now!
10-day predictions
RADIO 2 is classified as:


NORAD ID: 11086
Int'l Code: 1978-100C
Perigee: 1,691.7 km
Apogee: 1,713.6 km
Inclination: 82.5 °
Period: 120.3 minutes
Semi major axis: 8073 km
RCS: 0.379 m2 (medium)
Launch date: October 26, 1978
Source: Commonwealth of Independent States (former USSR) (CIS)
Launch site: PLESETSK MISSILE AND SPACE COMPLEX (PKMTR)

Uplink (MHz):
Downlink (MHz):
Beacon (MHz):
Mode:
Call sign:
Status:

Your satellite tracking list
Your tracking list is empty




NASA's NSSDC Master Catalog

Two Line Element Set (TLE):
1 11086U 78100C   24108.53156682  .00000036  00000-0  35400-3 0  9997
2 11086  82.5451 131.6000 0013559 107.8778  16.3951 11.96742807986323
Source of the keplerian elements: AFSPC